PA3DZX-13 Weather Reports


Display with metric or nautical units.
time (UTC)temp
F
wind
direction
speed
MPH
gust
MPH
rain 1hr
in
rain 24hr
in
rain mn
in
humidity
%
barometer
mb
20260510114204 60 338 8.0 15.0 0.00 0.00 0.00 63 1013.8
20260510112704 60 352 8.0 13.0 0.00 0.00 0.00 63 1013.9
20260510111202 59 1 8.0 15.0 0.00 0.00 0.00 65 1013.9
20260510105703 60 0 6.0 15.0 0.00 0.00 0.00 66 1013.9
20260510104202 59 352 8.0 13.0 0.00 0.00 0.00 69 1014.2
20260510102702 59 346 6.0 11.0 0.00 0.00 0.00 70 1014.3
20260510101201 60 352 8.0 15.0 0.00 0.00 0.00 67 1014.3
20260510095702 60 5 8.0 15.0 0.00 0.00 0.00 69 1014.4
20260510094200 59 12 6.0 11.0 0.00 0.00 0.00 70 1014.6
20260510092700 59 10 6.0 15.0 0.00 0.00 0.00 71 1014.6
20260510091200 59 9 11.0 15.0 0.00 0.00 0.00 69 1014.5
20260510085700 59 359 8.0 15.0 0.00 0.00 0.00 71 1014.5
20260510084159 57 353 6.0 11.0 0.00 0.00 0.00 76 1014.6
20260510082659 55 355 6.0 11.0 0.00 0.00 0.00 77 1014.6
20260510081158 55 343 6.0 8.0 0.00 0.00 0.00 81 1014.7
20260510075659 55 329 4.0 8.0 0.00 0.00 0.00 81 1014.7
20260510074158 53 320 4.0 4.0 0.00 0.00 0.00 86 1014.7
20260510072658 51 328 2.0 4.0 0.00 0.00 0.00 88 1014.8
20260510071158 50 345 2.0 4.0 0.00 0.00 0.00 92 1014.9
20260510065658 48 351 2.0 4.0 0.00 0.00 0.00 93 1014.8
20260510064157 46 334 2.0 6.0 0.00 0.00 0.00 97 1015.0
20260510062657 46 331 2.0 6.0 0.00 0.00 0.00 98 1015.0
20260510061156 46 345 2.0 6.0 0.00 0.00 0.00 99 1014.9
20260510055656 44 332 4.0 6.0 0.00 0.00 0.00 99 1014.9
20260510054155 44 355 0.0 2.0 0.00 0.00 0.00 99 1014.8
20260510052655 42 350 0.0 0.0 0.00 0.00 0.00 99 1014.9
20260510051154 41 279 0.0 0.0 0.00 0.00 0.00 99 1014.9
20260510045654 39 279 0.0 0.0 0.00 0.00 0.00 99 1014.9
20260510044154 39 279 0.0 0.0 0.00 0.00 0.00 99 1014.8
20260510042654 39 279 0.0 0.0 0.00 0.00 0.00 99 1014.8
20260510041153 39 279 0.0 2.0 0.00 0.00 0.00 99 1014.8
20260510035653 37 279 0.0 2.0 0.00 0.00 0.00 99 1014.9
20260510034153 37 81 0.0 0.0 0.00 0.00 0.00 99 1014.9
20260510032653 37 81 0.0 0.0 0.00 0.00 0.00 99 1015.0
20260510031153 39 81 0.0 0.0 0.00 0.00 0.00 99 1015.0
20260510025653 37 81 0.0 0.0 0.00 0.00 0.00 98 1015.1
20260510024153 39 81 0.0 0.0 0.00 0.00 0.00 99 1015.1
20260510022653 39 81 0.0 0.0 0.00 0.00 0.00 99 1015.1
20260510021153 39 81 0.0 0.0 0.00 0.00 0.00 99 1015.2
20260510015653 39 81 0.0 0.0 0.00 0.00 0.00 99 1015.2
20260510014153 41 81 0.0 0.0 0.00 0.00 0.00 99 1015.3
20260510012653 41 81 0.0 0.0 0.00 0.00 0.00 99 1015.2
20260510011153 41 81 0.0 0.0 0.00 0.00 0.00 99 1015.3
20260510005653 41 81 0.0 0.0 0.00 0.00 0.00 99 1015.4
20260510004153 41 81 0.0 0.0 0.00 0.00 0.00 99 1015.5
20260510002652 41 81 0.0 0.0 0.00 0.00 0.00 99 1015.6
20260510001152 42 81 0.0 2.0 0.00 0.00 0.00 99 1015.8
20260509235652 42 80 0.0 2.0 0.00 0.00 0.00 99 1015.9
20260509234153 42 80 0.0 2.0 0.00 0.00 0.00 99 1015.9
20260509232653 42 80 0.0 2.0 0.00 0.00 0.00 98 1016.0
20260509231151 42 81 0.0 2.0 0.00 0.00 0.00 98 1016.2
20260509225652 42 81 0.0 2.0 0.00 0.00 0.00 98 1016.3
20260509224151 44 81 0.0 2.0 0.00 0.00 0.00 96 1016.4
20260509222650 42 81 0.0 2.0 0.00 0.00 0.00 95 1016.3
20260509221151 46 313 0.0 0.0 0.00 0.00 0.00 94 1016.4
20260509215651 46 314 0.0 0.0 0.00 0.00 0.00 93 1016.3
20260509214150 48 313 0.0 0.0 0.00 0.00 0.00 87 1016.4
20260509212650 48 313 0.0 0.0 0.00 0.00 0.00 90 1016.5
20260509211149 50 313 0.0 0.0 0.00 0.00 0.00 85 1016.6
20260509205650 51 313 0.0 0.0 0.00 0.00 0.00 81 1016.8
20260509204149 51 313 0.0 0.0 0.00 0.00 0.00 80 1016.8
20260509202649 51 313 0.0 0.0 0.00 0.00 0.00 79 1016.8
20260509201149 53 313 0.0 0.0 0.00 0.00 0.00 72 1016.7
20260509195649 53 313 0.0 2.0 0.00 0.00 0.00 69 1016.4
20260509194148 55 314 2.0 4.0 0.00 0.00 0.00 64 1016.4
20260509192648 59 320 2.0 4.0 0.00 0.00 0.00 57 1016.4
20260509191147 59 330 4.0 6.0 0.00 0.00 0.00 53 1016.3
20260509185647 62 316 2.0 4.0 0.00 0.00 0.00 51 1016.3
20260509184146 62 327 2.0 6.0 0.00 0.00 0.00 50 1016.4
20260509182646 62 345 4.0 6.0 0.00 0.00 0.00 49 1016.2
20260509181146 64 295 2.0 6.0 0.00 0.00 0.00 44 1016.2
20260509175646 64 245 2.0 4.0 0.00 0.00 0.00 42 1016.2
20260509174145 64 16 4.0 6.0 0.00 0.00 0.00 46 1016.2
20260509172645 66 303 2.0 11.0 0.00 0.00 0.00 44 1016.0
20260509171145 66 259 2.0 6.0 0.00 0.00 0.00 40 1016.1
20260509165645 66 24 2.0 6.0 0.00 0.00 0.00 40 1016.1
20260509164144 66 29 2.0 4.0 0.00 0.00 0.00 42 1016.1
20260509162644 66 295 2.0 6.0 0.00 0.00 0.00 42 1016.1
20260509161143 66 342 2.0 6.0 0.00 0.00 0.00 43 1016.3
20260509155643 66 24 2.0 11.0 0.00 0.00 0.00 43 1016.4
20260509154143 64 344 4.0 8.0 0.00 0.00 0.00 43 1016.6
20260509152643 64 280 4.0 8.0 0.00 0.00 0.00 42 1016.8
20260509151142 66 255 4.0 11.0 0.00 0.00 0.00 44 1016.8
20260509145642 66 273 6.0 11.0 0.00 0.00 0.00 42 1016.8
20260509144141 64 215 4.0 8.0 0.00 0.00 0.00 39 1017.1
20260509142641 64 285 2.0 4.0 0.00 0.00 0.00 43 1017.1
20260509141140 64 273 2.0 8.0 0.00 0.00 0.00 45 1017.3
20260509135640 64 289 2.0 6.0 0.00 0.00 0.00 47 1017.4
20260509134140 62 180 4.0 8.0 0.00 0.00 0.00 48 1017.7
20260509132640 62 175 4.0 8.0 0.00 0.00 0.00 45 1017.8
20260509131139 62 299 2.0 4.0 0.00 0.00 0.00 50 1018.0
20260509125639 62 68 2.0 8.0 0.00 0.00 0.00 52 1018.2
20260509124138 60 129 4.0 8.0 0.00 0.00 0.00 51 1018.3
20260509122638 60 77 4.0 8.0 0.00 0.00 0.00 52 1018.4
20260509121137 62 71 0.0 6.0 0.00 0.00 0.00 51 1018.5
20260509115638 62 183 2.0 11.0 0.00 0.00 0.00 51 1018.6